Location: Columbia
(38.9520°N, 92.3340°W)
Time: 18:12:37
(UTC-06:00)

Daily predictions for brighter satellites

Satellite Brightness Start Highest point End
(mag) Time Altitude Azimuth Time Altitude Azimuth Time Altitude Azimuth
Cosmos 2034 Rocket 4.3 17:32:18 10° N 17:38:40 80° W 17:45:01 10° S
Cosmos 841 Rocket 3.6 17:33:34 10° S 17:38:45 62° ESE 17:43:58 10° NNE
Cosmos 371 Rocket 3.9 17:35:18 10° SSE 17:39:41 37° ESE 17:44:06 10° NE
Lacrosse 5 rocket 3.2 17:39:22 10° N 17:40:57 12° NNE 17:42:35 10° NE
MOS 1 4.3 17:36:14 10° SSE 17:41:52 81° ENE 17:47:34 10° NNW
CZ-4 R/B 1.6 17:39:01 10° S 17:42:52 72° WSW 17:46:46 10° NNW
OTV 4 0.5 17:42:57 10° W 17:45:55 73° S 17:48:51 10° E
CENTAUR R/B 2.8 17:43:12 10° SW 17:49:11 71° NW 17:55:59 10° NNE
Cosmos 1937 Rocket 3.9 17:45:18 10° NNW 17:50:28 70° WSW 17:55:39 10° S
OAO 3 Rocket 4.5 17:46:44 10° W 17:51:18 39° SSW 17:55:48 10° SE
Cosmos 1766 Rocket 4.5 17:47:34 10° SSW 17:51:56 53° W 17:56:18 10° N
SMAP 3.4 17:48:00 10° S 17:52:39 74° WSW 17:57:19 10° NNW
Cosmos 2084 3.5 17:50:23 10° SSW 17:54:11 49° ESE 17:57:53 10° NE
Abrixas rocket 3.8 17:54:51 10° WNW 17:57:58 38° SW 18:01:05 10° SSE
Meteor 2-2 Rocket 4.2 17:52:53 10° N 17:58:31 70° E 18:04:07 10° SSE
Cosmos 44 Rocket 3.5 17:53:38 10° SSW 17:58:42 64° ESE 18:03:43 10° NE
Cosmos 1844 Rocket 2.7 17:53:45 10° NNW 17:59:27 78° ENE 18:05:04 10° SSE
Lacrosse 5 4.0 17:56:26 10° WNW 17:59:39 17° NNW 18:02:52 10° NNE
Cosmos 1328 4.0 17:56:22 10° SSE 18:00:09 46° E 18:03:56 10° NNE
Meteor 1-28 Rocket 3.9 17:56:56 10° NNE 18:00:17 31° E 18:03:37 10° SSE
CZ-3A R/B 3.8 17:56:25 10° NW 18:00:57 26° NNE 18:04:51 11° E
Aureole 2 Rocket 4.1 18:00:01 10° SE 18:02:35 19° E 18:04:38 13° ENE
COSMO-SKYMED 1 2.7 17:58:40 10° NNE 18:02:57 56° E 18:07:12 10° S
YAOGAN 1 3.1 17:58:41 10° S 18:02:58 63° W 18:07:17 10° NNW
CZ-2C R/B 3.5 17:58:21 10° S 18:03:14 51° W 18:08:01 10° NNW
Cosmos 836 Rocket 4.5 18:03:09 10° S 18:08:20 72° ESE 18:13:36 10° NNE
Cosmos 2228 Rocket 3.3 18:04:22 10° N 18:08:47 75° W 18:13:12 10° S
Cosmos 2360 Rocket 4.2 18:07:56 10° WSW 18:12:23 24° NW 18:16:53 10° N
Cosmos 2279 Rocket 4.3 18:07:00 10° N 18:12:53 42° ENE 18:18:43 10° SSE
SJ-6B 3.9 18:09:47 10° SE 18:13:08 25° ENE 18:16:32 10° NNE
Cosmos 1980 3.8 18:07:40 10° S 18:13:14 59° ESE 18:18:49 10° NNE
Milstar 3 4.1 18:09:08 10° WSW 18:15:08 32° S 18:21:22 10° SE
Cosmos 2058 3.2 18:16:06 10° SSE 18:20:00 44° E 18:23:55 10° NNE
Cosmos 2333 Rocket 2.2 18:20:01 10° SSW 18:25:40 90° SSW 18:31:22 10° NNE
Cosmos 1703 4.1 18:24:38 10° SSE 18:28:01 29° E 18:29:16 24° ENE
Atlas Centaur 2 4.1 18:25:03 10° WSW 18:28:06 16° SSW 18:30:48 10° SSE
Meteor 2-10 3.9 18:30:35 10° N 18:35:37 60° E 18:40:45 10° SSE
Cosmos 372 Rocket 3.9 18:30:48 10° N 18:35:50 57° ENE 18:40:50 10° SSE
METEOR-M 4.1 18:32:04 10° SSE 18:37:19 60° ENE 18:42:36 10° N
Cosmos 2219 Rocket 2.9 18:33:36 10° SW 18:39:07 54° WNW 18:44:39 10° NNE
Meteor 1-27 4.2 18:36:45 10° N 18:42:35 74° E 18:48:24 10° SSE
Cosmos 1340 Rocket 2.7 18:38:48 10° S 18:42:42 63° E 18:45:23 19° NNE
BREEZE-M DEB (TANK) 2.5 18:41:05 10° W 18:43:32 31° NNW 18:43:54 29° N
Cosmos 1356 Rocket 4.1 18:40:35 10° SSE 18:43:34 30° ESE 18:43:34 30° ESE
Cosmos 2151 3.4 18:41:45 10° SSW 18:45:55 62° W 18:50:05 10° N
Cosmos 2278 Rocket 2.1 18:40:15 10° NNW 18:45:58 82° ENE 18:51:38 10° SSE
Cosmos 540 Rocket 3.6 18:41:59 10° SSW 18:47:08 74° WNW 18:52:19 10° NNE
Abrixas 2.4 18:44:26 10° SW 18:47:20 61° SE 18:47:20 61° SE
SL-14 R/B 4.1 18:47:40 10° SSW 18:51:27 51° W 18:55:20 10° N
Cosmos 783 Rocket 4.5 18:46:48 10° SSW 18:52:07 88° WNW 18:56:58 13° NNE
USA 215 3.2 18:46:18 10° SE 18:52:52 84° NE 18:59:27 10° NW
Cosmos 1626 2.7 18:49:47 10° SSE 18:52:36 39° SE 18:52:36 39° SE
Cosmos 1805 Rocket 3.5 18:49:41 10° S 18:54:05 68° E 18:57:08 20° NNE
Cosmos 1151 Rocket 4.2 18:53:43 10° NNW 18:57:46 43° W 19:01:49 10° SSW
Haruka 4.4 18:59:09 10° WSW 19:03:26 47° SSE 19:09:16 25° ESE
NOAA 12 4.3 18:59:17 10° S 19:04:28 70° WSW 19:09:44 10° NNW
Cosmos 1125 Rocket 4.4 19:00:52 10° NNW 19:05:53 50° WSW 19:10:53 10° S
Timation 1 Rocket 4.3 19:00:17 10° NNW 19:06:16 64° ENE 19:10:29 20° SE
BREEZE M DEB (TANK) 3.7 19:05:02 10° NW 19:05:48 18° NW 19:05:48 18° NW
ALOS 2.2 19:04:04 10° SSE 19:08:40 62° ENE 19:13:17 10° N
Cosmos 2237 Rocket 3.0 19:04:23 10° SW 19:09:50 50° WNW 19:14:53 12° N
Cosmos 1726 4.4 19:08:53 10° NNW 19:12:02 26° W 19:15:11 10° SSW
Cosmos 44 4.3 19:07:06 10° SW 19:12:10 47° NW 19:15:09 22° N
Spot 2 Rocket 3.3 19:09:09 10° SSE 19:14:08 65° ENE 19:19:08 10° N
SL-16 R/B 2.0 19:08:45 10° SSW 19:14:22 76° ESE 19:16:19 42° NE
Sich 1 2.9 19:13:38 10° S 19:17:57 79° ESE 19:17:57 79° ESE
Lacrosse 5 rocket 2.2 19:16:55 10° NW 19:19:24 38° NNW 19:19:24 38° NNW
Cosmos 1633 Rocket 3.5 19:16:48 10° S 19:20:04 49° SSE 19:20:04 49° SSE
OTV 4 2.8 19:19:06 10° W 19:20:41 24° WSW 19:20:41 24° WSW
Cosmos 1538 Rocket 3.9 19:16:38 10° SSW 19:21:53 77° ESE 19:22:41 63° NE
Cosmos 2297 3.5 19:19:18 10° NNW 19:25:02 81° ENE 19:27:01 43° SSE
Resurs 01 Rocket 2.6 19:31:56 38° NNW 19:31:56 38° NNW 19:34:43 10° NNW
USA 229 DEB 3.9 19:25:39 10° S 19:31:47 50° SE 19:31:47 50° SE
USA 229 3.9 19:25:46 10° S 19:31:49 49° SE 19:31:49 49° SE
Cosmos 1461 4.4 19:44:25 10° SW 19:47:02 34° WSW 19:47:02 34° WSW
H-2A ROCKET BODY 3.6 19:47:56 10° WSW 20:01:50 36° SSW 20:02:29 36° S
